Theta_e
311 309 309 309 308 308 308 307 307 305 304 303 302 301 300 299 298 298 298 298 298 298 298 297 297 297 296 296 295 295 295 295 295 294 294 293 293 292 292 291 291 291 291 291 291 291 291 291 291 290 289 289 289 289 289 290 289 289 289 289 288 288 288 288 288 288 289 289 289 289 289 289 290 290 292 292 292 291 290 291 291 292 292 293 293
315 312 309 307 308 307 306 306 306 304 303 302 301 300 300 299 299 298 298 298 298 298 297 297 297 296 296 296 295 295 295 295 295 294 294 293 293 292 291 291 291 290 291 291 290 291 291 291 290 290 289 289 289 289 289 289 289 289 288 288 288 288 288 288 288 288 289 289 288 289 289 289 289 291 293 292 290 290 291 292 292 292 293 293 293
318 317 310 305 306 306 305 305 305 304 302 302 301 300 299 299 298 298 297 297 297 297 297 297 297 296 296 295 295 295 295 295 295 294 293 293 292 292 291 291 290 290 290 290 290 290 291 291 290 289 289 288 288 288 289 289 289 288 288 287 287 288 288 288 287 287 288 288 288 289 290 289 290 291 291 290 289 290 291 291 291 291 291 291 291
318 317 311 306 304 303 303 303 303 303 301 301 300 299 299 298 298 298 297 297 297 297 297 297 296 296 295 295 295 294 294 294 294 294 293 293 292 292 291 290 290 290 290 290 290 290 290 290 290 289 288 288 288 288 289 289 289 288 287 287 287 288 288 287 288 287 286 287 288 290 290 289 291 290 289 289 289 290 290 290 289 290 290 290 290
317 315 310 308 306 302 302 303 302 301 300 300 300 299 299 298 298 298 297 297 297 297 296 296 296 295 295 294 294 294 293 293 293 293 293 292 292 292 291 290 290 290 290 289 289 290 290 290 289 289 288 288 288 288 289 289 288 288 287 287 287 288 287 287 288 287 286 286 287 289 290 290 291 289 288 289 289 289 289 289 289 290 290 289 289
315 313 310 308 306 302 300 301 301 300 300 300 300 299 299 298 298 298 297 297 296 296 296 296 295 295 294 293 293 293 292 292 292 292 292 292 292 292 291 290 289 289 289 289 289 289 289 289 289 288 288 288 288 288 288 289 288 287 287 286 286 287 287 287 288 286 285 286 286 288 289 289 289 288 288 289 288 288 288 289 289 289 289 289 289
313 310 308 307 305 302 300 300 300 300 300 300 300 299 299 298 298 298 297 297 296 296 296 295 295 295 294 294 293 293 292 292 292 292 292 292 292 291 291 289 289 289 289 289 289 289 289 288 288 288 288 287 287 288 288 289 288 287 286 286 286 287 287 287 287 286 285 286 286 286 287 287 287 287 288 288 287 287 288 288 288 288 288 289 289
312 309 307 306 305 303 301 299 300 300 300 299 299 299 299 298 298 297 297 296 296 296 296 295 295 294 294 293 293 293 292 292 292 292 291 291 291 291 290 289 289 289 289 289 289 289 288 288 288 287 287 287 287 288 288 288 288 287 286 285 285 286 286 286 285 285 286 286 286 285 285 286 286 286 286 286 286 286 286 287 287 287 288 288 287
311 309 307 306 304 302 300 300 300 300 299 299 299 298 298 298 297 297 296 296 296 296 295 295 295 294 294 293 293 293 292 292 292 292 291 291 291 291 290 289 288 288 288 288 288 288 288 288 287 287 287 287 287 287 288 288 288 287 286 285 285 285 285 285 284 285 286 286 285 285 285 285 285 285 286 286 286 286 286 286 286 286 286 286 286
311 309 307 305 303 301 300 300 299 299 299 299 299 298 298 297 297 297 296 296 295 295 295 295 295 294 294 293 293 293 292 292 292 291 291 291 291 290 289 289 288 288 288 288 288 288 287 287 287 287 287 286 287 287 287 288 287 286 285 284 284 284 284 284 284 284 285 285 285 285 285 285 285 285 285 285 285 285 285 285 285 285 285 285 286
312 309 307 304 301 300 300 299 298 299 298 298 298 298 297 297 297 296 296 296 295 295 295 295 294 294 294 293 293 293 292 292 291 291 291 290 290 290 289 289 289 289 288 287 287 287 287 287 287 286 286 286 287 287 287 287 287 286 285 284 284 284 284 284 284 284 284 284 285 285 284 284 284 285 284 284 284 284 284 284 284 284 284 284 285
313 309 307 305 302 301 299 297 297 298 297 297 297 297 297 297 297 296 296 295 295 295 295 294 294 294 294 293 293 293 292 292 291 291 291 290 290 289 289 289 289 289 288 287 287 287 287 286 286 286 286 286 286 286 287 287 286 285 284 284 284 283 283 283 283 283 283 284 284 284 284 284 284 284 284 284 283 283 283 283 283 283 283 284 284
312 309 307 305 304 303 299 297 296 297 297 297 297 297 297 296 296 296 295 295 295 294 294 294 294 294 293 293 293 293 292 292 292 291 291 291 290 289 289 289 289 289 288 287 287 287 287 286 286 286 286 286 286 286 286 286 286 285 284 284 283 283 283 283 283 283 283 283 283 283 283 284 284 284 283 283 283 283 282 282 283 283 283 283 283
311 308 306 304 304 303 300 297 296 296 296 296 297 296 296 296 296 296 295 295 295 294 294 294 294 294 293 293 293 293 292 292 292 291 291 290 290 289 289 289 289 289 288 288 288 287 287 287 287 286 286 286 286 286 286 286 285 284 283 283 283 282 282 282 282 282 283 283 283 283 283 283 283 283 283 283 282 282 282 282 282 282 282 283 283
310 308 306 304 303 302 299 296 296 296 296 296 296 296 296 296 296 295 295 295 294 294 294 294 294 293 293 293 292 292 292 292 292 291 291 290 290 290 290 289 289 289 289 288 288 287 287 287 286 286 286 286 285 285 286 285 285 284 283 282 282 282 282 282 282 282 282 283 283 283 283 282 282 282 282 282 282 282 282 282 282 282 282 282 282
310 308 306 305 303 300 297 296 296 296 296 296 296 296 296 296 296 295 295 295 294 294 294 294 293 293 293 293 292 292 292 292 291 291 291 291 290 290 290 290 289 289 289 288 288 287 287 286 286 286 285 285 285 285 285 285 284 283 283 282 282 282 282 282 282 282 282 282 282 282 282 282 282 282 282 282 282 282 282 282 282 281 281 282 282
310 308 307 305 304 300 296 296 296 296 296 296 296 296 296 296 296 295 295 295 294 294 294 294 293 293 293 292 292 292 292 291 291 291 290 290 290 290 290 289 289 289 288 288 288 287 286 286 286 285 285 285 284 284 284 284 283 283 283 282 282 282 282 282 282 282 282 282 282 282 282 282 282 281 281 281 281 281 281 281 281 281 281 281 281
308 307 307 305 304 301 296 296 296 296 296 296 296 296 296 296 296 295 295 295 294 294 294 293 293 293 293 292 292 292 292 291 291 291 290 290 290 290 289 289 289 288 288 288 287 286 286 286 286 285 285 284 284 284 284 284 283 283 282 282 282 281 281 281 281 281 282 282 282 282 281 281 281 281 281 281 281 281 281 281 281 281 281 281 281
311 310 308 306 305 302 297 295 296 296 296 296 296 296 296 296 295 295 295 295 294 294 294 293 293 293 292 292 292 292 291 291 291 290 290 290 290 289 289 289 288 288 288 287 287 286 286 286 285 285 284 284 283 283 283 283 282 282 281 281 281 281 281 281 281 281 281 281 281 281 281 281 281 281 281 281 281 280 280 280 280 280 280 280 280
316 313 309 307 305 301 297 296 296 296 296 296 295 295 295 295 295 295 295 294 294 294 294 293 293 293 292 292 291 291 291 291 291 290 290 290 289 289 289 288 288 288 287 287 287 286 286 286 285 285 284 283 283 283 283 282 282 281 281 281 280 280 280 280 280 280 280 280 280 280 280 280 280 280 280 280 279 279 279 279 279 279 279 279 279
321 316 311 307 305 301 296 296 297 296 296 295 295 295 295 295 295 295 294 294 294 294 294 293 293 292 292 291 291 291 291 291 290 290 290 289 289 289 288 288 288 287 287 287 286 286 286 286 285 285 284 283 283 283 282 282 281 281 281 280 280 280 279 280 280 280 280 279 279 279 279 279 279 278 278 278 278 278 277 277 277 277 277 277 277
329 324 314 307 306 302 297 296 297 296 295 295 295 295 295 295 295 295 294 294 294 294 294 293 293 292 292 291 291 290 290 290 290 289 289 289 288 288 288 288 287 287 287 286 286 286 286 285 285 285 284 283 283 282 282 281 281 280 280 279 279 279 279 279 279 279 279 278 278 278 277 277 277 277 276 276 276 275 275 275 275 275 275 275 275
335 328 316 307 304 302 298 296 296 295 295 295 294 294 294 295 295 294 294 294 294 294 293 293 292 292 291 291 290 290 290 289 289 289 288 288 288 287 287 287 287 286 286 286 286 286 285 285 285 284 283 282 282 282 281 281 280 280 279 279 279 278 278 278 278 278 277 277 276 276 276 276 275 275 275 274 274 273 273 273 273 273 273 273 273
330 323 313 307 303 300 300 299 297 295 295 294 294 294 294 295 295 294 294 294 294 293 293 292 292 291 291 290 290 290 289 289 289 288 288 287 287 286 286 286 286 286 285 285 285 285 285 285 284 283 282 282 281 281 280 280 280 280 279 279 278 278 278 277 277 277 276 276 275 275 275 274 274 273 273 273 272 272 272 272 272 272 272 272 272
329 322 313 309 306 303 302 302 298 295 295 295 294 294 294 294 295 295 294 294 294 293 293 292 292 291 290 290 290 289 289 288 288 288 287 287 286 286 286 285 285 285 285 284 284 284 284 284 284 283 282 281 281 280 280 280 280 280 279 279 278 278 277 277 276 276 275 275 274 274 274 273 273 272 272 272 272 271 271 271 271 271 271 271 272
326 322 315 313 310 306 303 302 299 296 295 295 294 294 294 294 295 295 295 294 294 293 293 292 292 291 290 289 289 289 288 288 288 287 287 286 286 285 285 285 285 284 284 283 283 283 284 284 283 282 282 281 281 280 280 280 280 280 279 279 278 277 277 276 275 275 274 274 273 273 273 272 272 272 272 271 271 271 271 271 271 271 271 272 272
318 316 316 314 310 307 305 303 299 296 296 296 295 295 294 294 294 295 294 294 294 293 293 292 291 290 290 289 289 288 288 288 287 287 286 285 285 285 285 284 284 284 283 283 283 283 283 283 283 282 281 281 280 280 280 280 280 279 279 278 277 277 276 275 274 274 273 273 273 272 272 272 272 271 271 271 271 272 272 272 272 272 272 272 272
313 314 317 316 311 309 307 304 300 296 296 296 295 295 295 294 294 294 294 294 293 293 292 291 291 290 289 289 288 288 287 287 286 286 285 285 284 284 284 284 283 283 283 283 283 283 282 282 281 281 280 280 279 279 280 280 280 279 279 278 277 276 275 274 273 273 273 272 272 272 272 272 272 272 272 272 272 272 272 272 272 272 272 272 272
312 315 319 318 314 312 309 305 301 297 295 294 295 295 294 294 294 294 293 293 293 292 291 291 290 289 289 289 288 287 287 286 285 285 284 284 284 283 283 283 283 282 282 282 283 282 282 281 280 279 279 279 279 280 280 280 280 279 278 277 276 275 274 273 273 272 272 272 272 272 272 272 272 272 273 273 273 274 274 273 273 273 273 273 272
312 315 318 318 315 312 309 305 302 299 296 294 294 294 294 293 294 294 293 293 293 292 291 290 289 289 289 288 287 287 286 285 285 284 284 283 283 283 282 282 282 282 282 282 282 281 281 280 279 279 279 279 279 280 280 280 279 279 278 277 275 274 273 273 272 272 272 272 272 272 273 273 273 273 274 274 274 275 275 275 275 275 275 275 274
311 312 314 314 313 311 308 305 302 300 297 295 294 294 294 294 293 293 293 292 292 291 290 290 289 289 288 287 287 286 285 285 284 284 283 283 282 282 282 282 281 281 281 281 281 280 280 280 279 279 279 279 280 280 280 279 278 278 277 276 274 273 273 273 272 272 272 273 273 273 273 273 273 273 273 274 274 275 275 275 276 276 276 276 276
311 310 311 312 311 310 309 306 304 301 296 295 296 295 294 293 293 293 293 292 291 290 290 289 289 288 288 287 286 285 284 284 283 283 283 282 282 281 281 281 281 281 280 280 280 280 279 279 279 279 279 280 280 280 279 278 277 277 276 275 274 274 273 273 273 273 273 273 273 273 273 273 273 273 273 273 274 274 275 275 275 276 276 277 277
310 309 310 310 309 309 309 307 305 302 298 297 297 295 294 294 294 293 292 291 290 290 289 289 288 288 287 286 285 285 284 283 283 283 282 281 281 281 281 280 280 280 279 279 279 278 278 278 279 279 279 279 279 279 278 277 277 276 276 276 275 274 274 274 274 274 274 274 274 273 273 273 273 273 273 273 274 274 274 275 275 275 276 276 276
310 310 310 310 308 308 307 305 303 302 301 301 299 297 297 296 294 293 292 291 290 290 289 288 288 287 286 286 285 284 283 283 282 282 281 281 280 280 280 279 279 278 278 277 277 277 278 278 279 279 279 279 279 278 277 276 276 276 277 277 276 275 275 274 274 274 274 274 273 273 273 273 273 273 273 273 274 274 274 275 275 275 275 276 276
310 309 309 309 308 309 309 306 302 301 302 301 300 298 297 295 293 292 291 290 289 289 288 288 287 286 286 285 284 284 283 282 281 281 280 279 279 279 278 278 278 277 277 277 277 277 277 278 278 279 279 279 278 277 276 276 276 276 277 277 276 275 275 275 274 274 274 273 273 273 273 273 273 273 274 274 275 275 275 276 276 276 276 276 276
310 309 309 310 308 308 309 306 303 302 302 300 300 299 296 294 293 291 290 289 289 288 287 287 286 286 285 284 284 283 282 281 280 279 279 278 278 278 277 277 277 276 276 276 276 276 277 278 278 278 278 278 277 276 275 275 275 276 276 276 276 275 275 274 274 273 273 273 273 273 273 273 274 274 274 275 276 276 276 276 276 276 276 276 276
307 307 307 306 304 303 304 304 303 303 302 301 300 297 294 292 291 290 289 288 288 287 286 286 286 285 284 284 283 282 281 280 279 278 278 278 277 277 276 276 276 275 274 275 276 277 277 278 278 278 278 278 276 275 274 274 275 276 276 276 275 275 274 274 273 273 273 273 273 273 274 274 274 274 275 275 276 276 276 276 276 276 276 276 276
304 304 304 302 301 301 302 302 303 302 300 300 297 295 293 290 289 288 288 287 287 286 286 286 285 285 284 283 283 282 281 279 278 278 277 277 276 276 275 275 275 274 274 275 276 276 276 277 278 278 278 277 275 274 273 274 274 275 275 275 274 274 274 273 273 273 273 273 274 274 275 275 275 275 275 275 275 276 276 276 276 276 276 276 276
301 301 301 299 297 298 299 298 297 296 295 295 295 293 291 289 288 287 287 286 286 286 286 285 285 284 284 283 282 281 280 279 278 277 277 276 276 275 275 274 274 274 274 274 275 275 275 276 277 277 276 275 274 273 273 273 273 274 275 274 274 274 273 273 273 273 274 274 274 274 275 275 274 274 274 275 275 276 276 276 276 276 275 275 274
300 298 298 297 296 299 299 296 293 293 293 293 293 292 290 288 287 286 286 286 286 286 286 285 285 284 283 282 282 281 279 278 277 277 276 276 275 275 274 273 273 273 273 273 273 273 273 274 275 275 274 273 273 272 272 272 273 274 275 275 274 274 273 273 273 274 274 274 275 274 274 273 274 274 274 274 275 275 276 276 275 275 274 273 273
300 298 298 297 297 298 297 295 293 293 293 293 292 290 289 287 286 285 285 286 287 286 286 285 284 283 282 281 280 280 279 278 277 277 276 275 274 274 273 273 272 272 272 271 271 272 272 272 272 272 272 271 272 272 272 272 273 274 275 275 274 273 273 273 274 274 275 275 274 273 273 272 272 273 274 275 275 275 275 274 274 273 272 273 274
300 299 298 297 297 297 295 294 293 293 293 293 291 290 288 286 285 285 286 286 286 286 285 284 283 282 281 280 279 278 278 277 276 276 275 274 273 273 272 272 272 271 271 271 270 271 271 270 270 270 270 271 271 272 272 272 273 274 274 274 274 274 274 274 275 275 274 274 273 272 272 272 272 273 274 274 274 274 274 273 272 272 273 273 273
301 301 299 297 297 297 295 294 294 293 293 293 291 289 286 284 284 286 286 286 286 285 284 283 282 281 280 279 278 277 277 276 275 275 274 273 272 272 271 271 271 271 270 270 270 270 269 269 268 269 270 270 271 271 272 272 272 273 274 274 274 275 275 275 275 274 274 273 272 272 271 272 273 274 273 273 273 272 272 271 271 272 272 272 271
300 300 299 297 297 297 296 296 295 293 292 292 291 289 285 284 286 287 286 285 285 285 283 282 281 280 279 278 277 276 276 275 275 274 273 272 271 271 271 271 270 270 270 269 269 268 268 268 269 269 269 270 270 271 271 271 272 272 273 274 275 275 275 275 274 274 273 273 272 271 272 273 273 273 272 272 271 270 270 270 271 271 271 270 268
298 298 298 297 296 296 294 294 294 293 292 292 292 289 286 286 288 287 285 285 285 283 282 281 279 278 277 277 276 275 275 274 274 273 272 271 270 270 270 270 270 270 270 269 268 268 269 269 269 270 270 270 270 270 271 271 271 272 273 274 274 274 274 274 274 273 273 272 272 272 272 272 271 271 270 270 269 268 269 269 270 269 268 267 267
297 297 296 296 295 293 291 291 293 293 292 291 291 290 288 289 289 287 285 285 284 281 280 279 278 277 276 275 275 274 273 273 272 272 272 271 270 270 270 270 269 269 269 269 269 269 269 269 270 270 270 270 270 270 270 271 271 272 273 273 274 274 273 273 273 273 272 272 272 272 271 270 269 269 268 268 267 267 268 268 267 267 267 266 266
296 296 295 295 295 295 295 296 295 292 292 291 290 290 290 290 288 286 285 284 283 280 279 277 276 276 275 274 273 272 271 271 271 271 271 270 270 270 270 270 269 269 269 269 269 269 270 270 270 270 270 270 270 269 270 271 271 272 272 273 273 273 272 272 272 271 271 271 271 270 269 268 268 267 267 267 266 266 266 266 266 266 266 266 266
294 295 294 294 295 296 298 297 294 292 292 292 290 290 290 289 287 286 285 283 281 279 278 276 275 274 273 273 272 272 271 270 270 270 270 269 269 270 270 270 270 270 270 270 269 269 270 271 271 270 270 270 270 270 270 271 271 272 272 272 272 272 272 272 271 271 271 271 270 269 268 268 267 266 266 265 265 265 265 265 265 265 266 266 266
293 294 294 294 295 295 295 294 293 293 292 291 291 291 290 287 286 285 284 281 279 278 277 276 274 273 272 272 271 271 270 270 270 270 269 269 269 269 270 271 271 271 272 272 271 271 271 271 271 270 270 270 269 270 271 272 272 272 273 273 273 272 272 271 271 271 271 269 268 268 268 267 266 265 265 265 265 264 264 265 265 265 265 265 266
292 292 292 293 293 293 292 292 292 293 292 291 290 290 289 287 285 284 283 281 279 277 276 275 273 272 271 271 271 270 270 270 270 269 269 269 269 270 270 271 272 272 272 273 273 272 272 272 271 271 271 271 271 271 272 273 273 273 273 273 273 272 272 271 271 270 269 268 268 267 267 265 264 264 264 264 264 264 264 264 264 265 265 265 265
287 288 289 290 291 292 291 291 291 291 291 290 290 289 288 287 285 283 282 281 279 276 275 274 273 272 271 271 270 270 270 270 269 269 269 269 270 270 271 271 271 272 272 273 272 272 272 272 272 271 271 271 272 273 273 273 274 273 273 273 272 272 272 271 270 268 267 267 267 266 265 264 264 263 263 263 263 263 263 264 264 264 264 265 265
Wind_Speed
12 13 21 28 31 32 34 34 35 35 37 39 41 41 42 43 42 42 41 42 42 41 40 39 38 36 34 34 34 33 32 31 29 28 28 27 26 25 25 24 23 21 19 18 16 14 12 10 8 7 5 4 2 1 1 3 4 5 5 6 9 11 12 11 13 17 18 20 23 25 27 25 20 18 11 7 12 21 25 23 21 19 19 19 19
8 8 15 21 25 29 31 32 35 36 36 40 42 43 43 44 45 44 44 44 44 44 42 41 41 40 38 38 37 35 35 34 32 31 30 28 27 25 25 25 23 22 20 18 17 15 13 11 9 8 7 5 4 2 0 2 2 3 5 6 7 9 12 12 12 13 12 16 18 17 21 20 16 12 4 7 24 27 17 14 15 17 17 18 19
9 7 9 15 22 26 29 31 36 37 38 41 42 43 43 43 44 44 44 45 44 44 43 42 41 39 37 37 36 35 34 34 33 31 30 29 27 26 25 25 23 22 21 19 18 16 14 12 11 9 8 7 5 4 1 1 2 3 4 6 6 8 11 11 10 9 10 16 13 7 8 10 11 6 3 23 34 17 9 16 20 19 17 18 19
10 8 7 10 16 22 26 30 33 34 36 38 40 41 42 42 43 43 44 44 44 44 43 41 39 36 34 33 34 33 31 32 30 29 29 29 28 27 26 25 24 23 22 20 18 17 15 13 12 11 9 8 7 4 2 1 2 3 3 4 4 7 9 9 10 9 10 11 7 3 3 4 5 4 14 32 23 4 13 24 20 15 14 18 22
10 9 9 9 12 18 24 29 31 32 35 38 41 42 42 42 43 44 44 44 44 44 43 40 37 35 31 29 30 28 27 29 29 29 30 30 30 30 28 27 25 24 23 21 19 17 15 14 13 12 10 9 7 5 3 2 2 2 3 2 3 7 9 9 10 11 9 6 4 4 3 2 3 7 17 20 12 14 25 21 12 12 16 22 24
10 11 11 11 11 15 21 26 29 31 36 40 43 43 42 43 44 44 44 44 44 43 42 41 39 37 35 33 32 29 29 32 35 36 36 36 35 33 31 30 28 26 24 22 20 18 16 15 14 13 11 10 8 6 4 2 3 3 3 4 5 6 8 10 12 12 11 7 5 6 6 6 6 8 8 7 13 23 21 15 14 17 21 23 21
9 10 11 12 12 13 17 24 30 33 36 39 40 41 41 42 44 44 43 43 43 43 43 42 40 40 40 39 38 36 35 36 38 39 39 39 37 35 33 31 29 27 25 23 21 19 17 16 15 13 12 10 9 7 5 4 4 4 4 5 6 7 8 10 13 14 12 7 6 8 11 12 11 9 5 4 10 12 10 17 23 21 21 21 21
10 10 11 12 13 14 18 25 32 33 34 36 37 39 40 41 43 43 42 41 42 43 44 44 43 42 42 40 39 39 39 38 38 38 38 38 37 36 35 33 30 28 27 25 22 20 19 17 16 14 13 12 10 8 6 5 5 5 6 7 8 9 10 11 12 12 11 10 11 12 13 14 14 14 13 9 6 6 9 14 19 19 22 24 25
11 12 13 13 13 17 22 26 29 30 32 36 38 39 39 39 41 41 40 41 41 43 45 46 45 44 43 40 39 39 37 35 36 37 37 37 37 36 35 33 31 29 27 25 23 21 19 18 17 15 14 13 11 9 8 6 6 7 7 8 9 10 10 11 12 11 11 14 15 14 14 15 16 16 17 13 7 8 8 6 11 18 20 26 30
10 12 13 14 14 18 21 22 24 27 31 35 36 36 36 37 39 40 41 41 42 44 46 46 45 44 44 43 41 39 35 33 33 34 35 35 36 36 35 34 32 30 28 26 24 22 20 19 18 16 15 13 12 10 8 7 7 8 7 8 9 10 11 11 11 12 13 15 15 15 15 15 13 10 10 11 9 9 9 7 11 15 14 20 28
9 9 9 9 11 15 18 20 23 26 28 31 33 34 36 37 38 40 40 41 41 44 46 46 46 46 46 45 43 41 38 36 35 35 35 36 36 36 36 34 33 32 30 27 25 23 21 20 18 17 15 14 13 11 9 8 8 8 7 8 9 10 10 10 11 12 14 16 17 17 17 16 13 10 11 13 10 7 9 10 13 19 20 20 24
8 7 7 7 8 12 15 18 22 24 27 30 33 35 36 37 38 38 39 40 41 43 45 46 46 46 46 45 44 43 41 40 40 39 40 40 39 37 36 35 34 33 31 29 27 25 23 21 20 18 17 16 13 11 10 8 8 8 8 9 10 10 10 11 12 14 15 17 18 18 18 17 17 17 16 16 14 13 13 9 14 23 21 21 27
8 8 8 9 10 10 11 15 20 24 28 31 32 34 35 36 38 38 39 42 42 43 45 45 46 46 45 45 44 42 42 42 42 41 42 43 41 40 39 38 37 35 34 32 30 28 26 24 22 20 18 16 14 12 10 9 8 8 9 10 10 11 12 13 14 15 16 18 19 18 18 18 19 18 18 18 17 19 16 11 17 22 16 20 31
8 9 10 10 11 11 11 15 20 24 28 31 32 34 34 34 37 38 40 41 42 43 44 44 45 45 44 43 42 41 41 42 42 41 42 43 43 43 43 42 41 40 38 35 32 30 28 25 22 20 18 16 14 12 10 9 9 9 10 11 11 12 13 13 15 16 18 19 19 19 19 19 19 18 18 18 18 18 17 14 17 19 17 20 27
7 8 10 11 12 11 12 16 21 25 28 31 32 33 33 33 36 38 38 40 42 42 43 44 45 44 43 41 41 41 41 41 41 41 42 43 43 44 44 44 43 42 40 37 33 30 28 25 21 20 18 16 14 12 11 10 9 10 11 12 13 13 13 14 15 17 19 19 19 20 20 19 19 18 18 18 18 18 19 19 16 14 15 15 16
7 8 9 10 10 10 12 16 21 24 27 30 32 33 35 36 38 40 40 40 42 42 43 44 44 42 42 41 41 40 40 40 40 40 42 43 44 44 44 43 42 41 39 36 33 30 28 25 22 21 19 17 15 13 11 10 10 11 12 13 13 13 13 14 15 17 19 20 20 20 20 20 20 19 18 18 19 19 19 21 18 13 12 12 10
7 8 8 9 9 9 13 17 21 24 28 31 35 38 40 41 40 41 40 38 40 43 44 44 43 42 42 42 42 42 42 43 43 42 42 42 42 43 43 42 41 40 38 36 33 30 27 25 23 22 19 17 15 13 12 11 11 12 12 13 13 13 14 15 16 18 19 20 20 20 20 21 20 18 19 18 19 20 20 20 20 17 14 11 10
5 6 7 8 9 9 12 18 24 27 31 34 37 39 40 40 41 40 40 41 44 44 43 43 43 43 44 45 45 45 45 44 43 42 41 41 42 42 42 42 41 39 38 36 33 31 28 26 24 22 20 18 16 15 13 12 12 13 13 13 13 13 15 16 17 19 20 20 21 21 20 20 19 18 19 19 19 20 22 22 21 21 19 14 12
5 7 6 7 8 9 12 18 24 27 30 32 34 34 35 38 40 40 42 43 42 41 41 43 44 45 46 46 46 45 45 44 42 41 41 42 43 43 42 42 41 39 38 36 35 32 30 28 25 23 21 19 17 15 14 13 13 13 13 14 14 14 16 17 17 18 20 20 20 20 19 18 17 17 16 17 18 18 19 20 19 19 19 19 19
7 7 7 8 9 11 15 21 24 27 29 29 29 31 35 37 38 39 40 39 38 40 42 44 45 45 44 43 44 44 43 43 42 42 42 43 43 43 43 42 41 40 39 38 36 34 32 30 27 25 22 20 18 16 14 14 14 13 14 14 14 14 15 17 18 18 19 19 19 19 18 17 16 16 17 17 18 18 18 19 19 20 19 17 22
8 7 8 9 10 11 16 21 22 22 24 26 29 32 34 34 36 39 39 38 39 42 43 44 44 43 42 42 43 42 41 41 41 42 42 42 42 42 43 42 41 41 41 39 38 35 33 30 28 25 23 20 18 17 15 15 14 14 14 14 14 15 16 17 18 19 19 19 20 19 18 17 17 17 19 20 21 21 21 22 22 23 24 20 20
8 8 9 10 10 11 13 17 19 21 23 27 30 31 32 35 38 39 37 38 41 44 45 46 43 42 43 42 40 39 39 39 39 40 41 41 41 42 43 42 42 42 42 41 39 37 34 31 28 25 23 21 19 17 16 15 15 14 15 15 15 15 17 18 19 20 20 20 19 19 18 18 18 18 20 21 21 22 22 23 24 22 25 24 20
7 8 9 9 10 9 11 14 18 21 24 26 28 31 34 37 38 36 37 41 44 44 44 42 40 40 41 39 38 38 38 38 38 38 38 39 39 40 41 42 43 42 42 41 40 37 34 31 28 26 24 22 20 18 17 16 15 15 15 15 16 16 17 18 19 19 20 20 19 18 18 18 18 19 21 21 20 21 20 21 24 23 23 25 21
7 8 8 7 6 6 8 10 12 17 22 25 29 32 34 35 35 36 40 43 43 40 38 37 38 38 37 37 37 37 38 38 38 38 37 37 37 37 39 41 42 42 41 40 38 36 34 32 29 27 25 23 21 19 17 16 16 16 15 16 16 17 18 18 18 19 19 19 18 18 18 17 18 18 19 20 17 16 18 17 19 22 22 25 26
9 8 7 6 7 7 9 9 10 16 21 25 29 31 33 35 37 39 41 42 40 37 37 37 38 36 36 37 38 38 39 39 40 39 38 38 37 37 38 39 40 41 40 39 37 35 34 32 30 29 26 24 21 19 18 17 16 16 16 16 16 17 17 17 18 19 18 18 18 18 18 16 17 17 18 19 18 17 19 20 20 23 24 25 26
10 8 6 7 8 9 10 10 11 16 21 24 27 31 33 35 37 40 41 39 38 38 38 38 38 37 37 38 38 39 40 41 41 40 39 38 38 39 39 39 39 40 39 39 37 35 34 32 31 29 26 23 21 20 18 17 17 16 16 16 16 17 17 17 17 17 17 17 17 17 18 16 16 18 18 18 21 21 23 24 25 27 27 26 25
9 7 6 7 8 9 11 11 12 16 23 26 28 30 32 34 36 40 40 38 38 39 39 39 39 39 38 39 40 41 41 41 41 40 38 38 39 39 40 40 39 39 39 39 37 36 34 32 30 28 25 23 21 20 18 17 17 17 16 16 16 16 16 16 16 16 15 16 16 16 17 18 17 18 20 21 23 25 26 28 30 29 27 26 26
7 6 7 8 9 10 11 12 12 15 21 25 27 30 33 34 37 39 39 39 39 40 40 40 39 38 39 40 41 40 40 40 39 38 37 38 39 40 40 40 40 40 40 39 38 36 33 31 29 26 24 22 20 19 18 17 17 16 16 16 16 16 15 15 14 15 15 14 15 16 16 18 18 19 21 22 24 27 29 31 32 29 25 23 22
10 8 9 10 10 11 11 12 12 13 17 20 24 28 30 32 35 36 37 40 39 39 39 39 38 38 39 39 38 37 37 37 37 37 37 38 39 39 39 39 40 39 39 38 37 35 33 30 27 25 23 21 20 19 18 17 17 16 16 16 16 15 14 14 14 13 14 13 14 15 15 17 19 20 21 23 24 26 28 30 31 29 28 27 25
11 10 11 11 12 13 13 13 12 12 14 18 22 26 29 33 35 35 37 39 38 38 38 37 37 39 38 36 35 36 36 36 37 37 37 38 38 38 38 39 39 39 38 37 36 34 32 30 28 25 23 22 20 19 18 17 17 16 16 16 15 15 14 13 13 12 13 13 14 15 17 17 18 20 21 23 24 25 26 29 29 29 29 29 28
12 12 12 12 12 13 13 12 13 14 16 19 23 27 31 32 32 33 36 37 37 37 36 37 37 36 35 34 35 35 35 36 37 37 37 37 38 38 39 39 39 39 38 37 36 34 32 30 29 26 25 23 21 19 18 18 17 16 16 15 14 13 13 12 13 12 13 14 13 14 15 15 16 19 21 23 24 25 27 29 30 31 31 32 31
13 12 12 13 14 13 13 14 14 15 16 21 25 25 25 27 30 33 34 33 35 35 35 35 35 33 34 35 35 35 36 36 37 37 38 38 39 39 40 40 40 40 39 38 37 36 34 31 29 26 24 23 21 20 19 19 17 16 16 14 13 13 13 12 12 13 13 13 13 13 14 14 15 18 21 24 25 27 29 29 31 32 33 34 34
13 12 13 15 14 13 14 15 14 15 19 27 28 25 26 31 34 33 31 32 34 35 34 33 33 33 35 36 36 36 37 37 38 39 39 40 41 42 42 43 42 41 40 38 37 35 33 31 29 27 25 24 22 21 21 19 17 17 17 15 15 14 14 14 13 13 14 13 13 13 13 14 16 18 22 26 28 30 31 32 33 34 34 35 35
12 14 15 15 12 12 12 13 16 21 26 30 29 28 31 33 30 29 30 32 33 33 32 31 32 34 35 36 37 37 37 37 38 39 40 41 42 42 42 42 41 40 39 38 37 35 33 31 29 28 26 24 23 23 21 19 17 17 17 17 17 16 15 15 14 13 13 13 12 13 14 16 19 22 25 29 30 31 32 33 33 33 34 36 35
12 14 14 11 11 11 10 12 19 25 26 24 25 28 29 26 26 28 31 33 32 31 30 31 32 34 35 36 37 37 37 37 38 39 40 41 41 41 41 41 41 41 40 38 37 36 33 31 29 27 26 25 24 23 21 19 17 16 16 16 17 17 16 15 15 14 13 13 13 14 17 19 22 25 27 27 28 30 31 31 31 32 34 36 37
12 12 12 11 11 12 14 17 21 23 22 21 24 26 25 23 26 29 30 31 30 29 29 30 32 34 36 38 38 38 37 38 39 40 40 41 41 41 42 43 41 40 39 37 36 35 34 32 30 29 28 26 24 22 21 19 17 16 16 16 17 16 16 15 15 13 13 12 13 15 19 22 24 26 25 24 25 28 29 31 32 35 37 38 38
13 12 12 12 12 15 18 21 20 19 21 23 23 23 23 22 23 26 27 28 28 28 29 32 33 35 37 38 39 39 39 39 40 41 41 41 41 41 42 43 41 39 38 38 37 36 34 33 32 31 29 27 25 23 21 19 16 15 15 16 17 16 15 14 12 11 11 12 15 17 19 21 22 22 22 23 24 26 29 32 34 36 36 35 36
13 12 11 11 13 14 17 19 18 17 18 19 19 21 22 20 20 23 25 25 25 27 30 32 34 36 38 39 40 40 40 40 41 41 41 41 40 41 41 41 41 40 39 39 38 36 34 34 33 32 29 27 26 24 22 19 17 15 15 16 16 14 13 12 11 11 12 14 16 16 16 18 19 20 22 23 23 25 29 32 32 33 32 31 32
13 13 11 12 14 12 9 8 7 6 6 9 16 20 19 17 18 21 22 21 24 28 32 35 36 36 38 39 40 41 41 41 41 41 41 41 41 41 40 39 38 38 38 37 36 35 34 32 31 30 28 26 25 24 22 21 17 15 15 15 14 13 12 11 11 11 13 14 14 13 13 16 18 19 21 22 23 25 29 30 30 30 29 29 31
13 17 19 19 18 14 9 7 5 1 4 9 15 17 15 15 17 19 19 22 28 32 33 33 33 34 37 38 39 40 41 41 41 40 39 40 40 39 39 38 35 34 33 33 33 33 31 30 29 28 26 25 25 24 23 21 18 15 14 14 13 13 11 10 11 13 14 13 12 11 13 15 17 18 20 22 24 26 27 28 28 27 27 30 33
11 16 20 20 19 16 11 8 5 1 7 11 15 14 12 12 14 15 20 25 28 27 27 29 31 33 35 37 37 39 39 38 39 38 38 38 38 38 38 37 34 32 31 30 29 29 28 27 27 27 25 23 23 23 22 20 17 15 14 13 13 12 10 10 12 12 12 11 10 11 13 15 17 18 20 23 24 25 25 27 26 25 26 30 33
13 15 16 14 13 14 13 9 5 2 7 13 15 14 11 12 13 16 21 21 19 21 25 28 30 31 33 34 34 35 36 35 35 36 36 35 35 35 36 35 33 32 30 29 29 28 27 25 24 24 24 22 21 21 20 19 15 13 13 13 12 11 9 10 11 10 10 10 11 11 14 16 17 18 21 22 23 24 24 23 23 24 28 30 30
10 12 13 11 8 9 11 9 5 4 9 13 15 14 12 13 15 19 20 17 18 24 27 29 30 31 31 32 32 33 34 35 35 36 37 35 33 34 34 33 33 32 30 29 29 29 28 25 23 22 22 21 21 20 18 16 14 13 12 12 11 10 9 8 9 10 11 12 12 14 16 17 17 18 21 21 22 22 21 20 22 25 27 27 28
8 11 15 13 8 9 12 12 8 8 11 14 17 16 13 14 18 21 19 20 23 27 28 29 30 31 31 32 32 33 34 35 36 37 36 35 35 35 34 33 34 34 33 31 31 31 29 25 22 22 22 21 21 19 17 15 14 13 12 11 10 8 8 8 8 10 11 12 13 15 16 16 17 18 19 19 20 20 19 21 24 25 25 26 27
12 14 17 16 13 13 14 13 12 13 13 15 18 17 14 14 20 21 21 23 26 28 30 30 30 30 31 32 32 33 34 35 37 38 37 36 36 36 35 34 34 35 36 35 32 32 32 27 21 19 21 21 20 20 18 15 13 12 12 10 8 7 6 7 8 9 12 13 13 14 14 15 15 16 17 17 19 19 19 22 24 23 24 26 27
13 14 17 18 16 14 12 11 14 15 15 16 19 19 17 18 20 21 23 26 28 29 29 30 30 30 31 33 32 32 33 34 36 37 36 37 38 37 35 32 33 37 39 38 35 33 32 28 22 20 22 23 21 19 19 17 14 13 11 9 8 6 5 6 7 8 10 11 13 14 14 13 13 14 15 17 18 19 19 21 23 23 25 26 26
15 17 19 17 13 10 9 9 12 17 18 19 20 22 23 21 19 21 24 27 29 30 29 29 30 31 31 33 33 32 32 33 34 35 34 34 36 38 36 34 37 40 38 35 36 36 33 28 24 22 23 23 21 19 19 18 17 15 12 10 8 6 5 6 7 7 9 11 13 14 12 10 11 13 14 15 17 18 21 23 24 25 25 25 25
18 20 20 16 11 10 10 9 12 18 21 21 22 25 26 23 19 21 25 27 29 30 30 29 31 31 32 33 34 34 33 34 34 35 35 34 36 38 37 37 41 43 37 33 35 37 35 32 28 25 24 21 19 20 21 20 19 17 13 10 10 8 7 7 7 8 9 11 11 10 8 9 12 15 17 18 20 21 22 24 25 26 26 25 25
18 20 20 16 13 12 11 11 16 22 22 22 24 26 26 24 22 23 26 28 28 28 28 29 30 31 31 32 33 34 34 34 34 34 34 34 36 38 37 36 37 40 39 39 39 38 35 33 32 31 29 25 21 22 22 20 17 15 12 11 11 10 8 7 5 6 8 9 8 7 9 12 15 17 19 21 22 23 23 24 25 26 26 27 26
20 22 22 20 18 17 15 16 21 24 23 23 25 26 25 25 25 26 28 29 28 25 24 25 27 28 31 33 34 34 36 36 35 35 33 31 32 35 36 35 34 35 36 37 39 39 37 36 34 31 29 27 25 24 21 17 15 13 11 11 10 9 8 6 4 5 6 6 5 7 10 12 14 16 18 20 21 22 23 24 25 25 26 27 26
22 21 20 20 22 21 18 19 23 25 24 25 27 26 25 25 26 28 30 31 29 25 22 23 26 28 31 33 33 33 34 34 34 35 34 31 29 29 30 28 29 30 29 29 31 33 34 35 34 30 26 24 22 20 17 15 14 13 11 11 10 8 7 6 4 4 4 2 5 8 10 12 14 16 17 19 20 21 22 23 25 26 26 26 26
Wind_Direction
252 234 219 214 212 204 197 194 190 189 190 188 186 186 186 184 184 185 186 187 187 186 186 186 185 185 186 188 189 190 191 193 195 199 202 203 201 196 194 194 191 189 188 188 188 188 189 189 193 197 197 190 182 157 32 14 7 349 335 331 329 331 335 347 355 339 331 335 331 328 330 336 347 350 353 14 349 332 328 326 326 326 327 329 325
265 235 213 207 202 192 188 185 183 183 184 185 185 185 186 185 186 185 185 187 188 188 188 188 189 189 189 190 189 189 191 192 194 197 200 202 203 199 196 196 193 190 190 190 190 191 191 192 197 200 200 195 192 189 71 9 359 337 326 329 332 329 325 333 348 347 344 341 332 325 329 339 353 3 44 345 328 327 336 348 341 330 323 323 319
256 231 203 192 185 180 179 180 183 184 182 184 184 184 184 184 186 185 185 187 188 190 190 190 192 193 193 192 189 188 190 195 196 197 198 199 201 201 200 200 195 192 192 193 193 194 194 196 199 202 202 199 197 200 196 316 329 327 327 329 330 323 318 323 339 352 344 336 335 326 331 341 345 12 353 321 325 335 355 341 330 323 318 317 317
241 221 193 179 172 172 177 179 182 181 180 182 182 182 183 184 186 186 187 188 189 191 192 192 192 192 194 193 191 189 190 193 194 194 196 198 199 200 203 203 199 196 196 196 196 196 196 198 201 203 202 202 203 208 214 274 310 316 318 319 313 303 305 311 319 337 346 345 346 314 329 341 320 345 327 321 329 355 324 326 327 327 321 317 320
216 204 187 175 173 177 180 179 179 179 180 182 183 184 185 185 187 188 189 190 191 191 191 191 190 188 188 186 186 187 186 187 188 190 194 197 199 200 202 203 201 200 199 198 198 198 198 199 203 204 204 206 207 210 221 262 282 288 295 281 263 274 284 291 298 320 339 340 318 290 320 332 282 334 330 321 323 313 313 321 327 320 312 313 319
202 195 185 181 180 179 179 178 179 182 185 186 185 186 186 187 188 189 190 191 192 192 191 191 189 187 184 181 180 181 181 187 190 191 193 197 201 200 200 201 202 202 201 200 199 199 200 201 204 205 206 208 208 210 217 241 262 264 269 255 242 251 267 279 286 305 318 307 282 271 271 268 283 325 329 306 310 312 314 321 315 308 307 311 316
204 195 185 181 179 176 180 183 184 187 188 187 186 187 187 188 189 190 191 192 192 192 192 191 190 190 190 188 187 185 186 192 196 196 197 198 200 200 200 200 201 202 202 201 200 200 201 203 205 205 207 209 207 209 215 231 249 251 249 243 239 239 248 265 279 297 308 298 275 270 271 275 285 299 291 285 310 308 306 308 305 307 311 309 307
194 191 188 185 184 184 186 189 190 190 187 184 185 187 188 189 190 191 192 193 193 193 193 194 193 193 193 193 193 194 195 197 197 198 200 199 199 200 200 200 201 202 203 202 201 202 202 203 205 206 206 208 208 209 215 232 241 242 241 233 234 239 245 258 271 284 291 286 287 287 281 281 283 282 280 283 289 288 295 296 296 304 307 304 303
190 188 190 189 190 191 190 191 192 190 185 184 186 187 189 190 190 191 193 194 194 194 195 196 197 196 195 195 197 199 200 199 197 197 198 198 198 199 199 200 200 202 204 204 202 203 204 205 206 207 208 207 208 210 215 228 239 239 237 232 234 242 247 256 265 270 271 276 286 291 289 287 288 286 285 287 286 287 293 290 298 304 301 300 304
200 194 192 192 192 192 189 188 189 189 187 187 187 186 188 189 190 192 194 195 195 196 197 197 198 198 197 198 199 199 199 197 195 195 196 196 196 197 198 199 200 201 202 203 204 203 204 206 208 209 209 208 209 211 215 225 238 240 235 233 236 243 249 251 257 263 266 270 275 279 283 288 294 291 287 301 305 285 282 292 300 302 298 301 306
202 196 188 184 182 184 185 185 187 188 188 187 187 187 188 189 191 194 196 197 197 198 199 199 200 200 201 201 201 199 196 193 192 192 193 193 194 195 196 198 200 201 201 201 203 203 203 206 209 209 208 210 212 212 217 225 234 238 233 234 238 245 253 255 258 261 263 266 266 266 271 274 278 278 284 302 309 292 295 299 300 305 303 299 303
184 178 170 158 164 180 185 185 184 185 187 188 189 189 190 191 192 194 197 198 199 199 200 201 201 203 203 203 203 201 198 195 193 193 192 192 193 193 194 196 198 200 201 201 201 202 203 205 207 208 208 210 211 210 216 225 231 235 232 234 242 248 256 258 259 260 259 260 261 262 265 265 266 269 278 291 297 299 305 302 305 313 309 299 304
172 166 168 168 175 184 185 184 184 186 189 191 192 191 192 193 193 195 198 200 201 201 202 203 204 205 206 205 205 203 201 200 198 197 195 194 193 192 192 194 195 198 200 201 201 202 203 206 206 207 209 209 209 210 215 224 230 235 236 239 245 250 254 255 255 257 257 258 260 261 261 261 265 269 277 286 293 302 308 303 304 310 305 299 305
171 168 173 179 185 187 185 186 186 190 193 193 194 194 194 195 196 198 201 201 202 203 203 204 206 208 208 208 207 205 204 203 202 200 198 196 195 194 195 195 196 199 201 202 203 203 204 206 207 207 208 208 209 210 214 224 233 238 241 245 248 250 252 252 252 254 255 257 260 261 262 264 269 274 280 286 293 300 304 304 307 307 298 296 303
171 175 183 186 188 187 185 187 189 193 194 194 196 196 196 197 200 201 203 203 203 204 205 206 208 210 210 211 209 208 207 206 205 204 201 199 197 197 197 198 199 201 203 203 203 203 203 203 205 206 206 206 208 209 215 226 234 240 244 246 247 247 247 247 249 252 254 257 258 261 266 271 275 280 284 288 292 292 293 297 305 312 305 298 302
175 183 190 193 191 187 187 189 192 194 195 197 198 196 197 200 202 204 206 205 204 205 206 208 209 210 211 212 211 210 210 208 208 206 204 202 200 199 199 200 202 203 203 203 202 202 202 201 201 204 205 206 208 211 218 226 234 239 241 242 242 242 242 244 247 250 254 258 260 263 268 272 277 283 287 289 290 289 289 292 297 302 306 307 309
188 192 191 194 193 194 195 192 192 194 195 199 200 199 200 200 202 205 206 206 207 207 208 209 209 210 212 213 213 211 210 210 210 208 205 203 202 202 202 202 203 203 203 202 201 200 201 201 201 202 204 206 209 213 219 226 231 236 238 239 240 240 242 244 247 251 255 258 262 265 269 274 280 285 288 290 291 290 288 288 289 289 290 297 308
206 212 203 203 200 199 200 198 199 199 199 201 202 202 203 202 203 204 204 206 208 208 208 209 209 211 212 213 213 212 212 211 211 209 206 204 203 203 203 202 202 202 201 200 199 198 198 200 201 202 204 208 211 215 220 224 228 231 233 235 237 238 240 243 245 249 255 258 261 266 269 275 282 286 289 291 290 289 288 285 283 283 280 278 288
210 216 212 212 208 205 204 204 204 204 205 207 205 204 204 206 206 206 207 208 208 207 208 210 211 212 213 214 214 213 212 211 210 209 207 205 204 203 202 202 201 200 199 197 197 197 196 198 200 203 206 209 211 215 219 222 224 226 228 231 233 235 239 244 246 249 254 259 263 267 271 276 283 287 289 289 288 286 284 282 279 275 272 272 277
210 212 216 215 213 212 208 207 206 205 207 208 206 205 207 208 207 208 211 210 209 209 210 211 213 214 214 215 215 214 212 211 209 208 208 207 206 203 201 201 199 198 197 196 196 196 196 198 200 203 206 208 210 214 217 219 221 223 226 229 231 233 238 245 249 253 256 260 263 266 269 275 280 283 282 281 281 278 276 276 277 277 274 271 276
210 207 216 218 218 218 213 212 210 207 207 206 207 208 209 209 209 211 211 209 210 211 212 213 214 214 214 215 215 213 212 211 210 209 208 208 207 204 202 200 197 197 196 195 195 195 196 198 200 203 206 208 211 213 215 218 219 220 224 227 229 232 238 244 250 254 257 260 263 265 269 274 277 279 279 279 279 277 276 276 275 278 277 273 273
211 210 216 215 217 216 209 208 206 204 206 207 208 208 208 210 211 211 211 210 211 212 212 214 214 213 215 215 214 213 212 211 210 209 208 207 207 205 201 198 196 196 195 195 195 195 196 198 200 203 206 208 209 211 213 215 216 218 222 225 228 232 237 244 250 256 260 262 264 268 272 275 277 278 279 280 281 280 280 279 277 276 277 274 269
223 220 222 219 219 216 205 203 202 202 206 207 207 207 209 211 212 211 212 213 214 214 213 213 212 213 214 213 212 211 211 210 210 209 208 207 206 204 201 198 195 194 194 195 195 195 195 196 199 201 203 205 206 207 210 213 215 219 221 224 229 235 240 245 250 256 261 265 269 273 276 278 280 281 282 283 285 284 281 280 280 277 275 275 270
245 233 231 228 223 212 204 205 204 206 206 206 206 208 210 211 211 211 214 216 216 214 213 212 212 213 212 211 211 210 208 208 208 208 208 207 205 203 201 199 195 193 193 194 195 195 194 194 196 198 200 202 203 205 208 211 216 218 222 226 230 236 240 245 252 257 263 268 273 277 280 282 283 284 286 286 285 283 280 279 278 277 275 275 274
252 242 232 217 208 203 206 208 208 210 209 207 208 209 210 210 211 212 215 217 216 213 212 211 211 211 210 210 209 208 207 207 206 206 206 205 204 203 201 199 196 194 192 193 193 194 194 194 195 197 198 200 203 205 207 209 215 218 222 227 231 237 243 247 252 257 263 268 273 277 279 283 284 284 285 285 283 280 279 277 274 275 274 271 269
243 237 218 209 215 214 210 208 211 213 211 210 210 209 209 211 212 214 215 215 213 211 211 210 210 210 209 209 208 206 206 206 205 205 203 202 202 202 201 200 198 195 192 191 192 193 194 195 196 198 199 200 202 204 206 208 213 217 221 226 232 239 245 249 253 257 262 266 270 274 278 279 279 280 281 282 281 279 277 276 273 273 271 265 261
239 236 228 232 235 226 218 214 215 214 212 211 211 209 209 211 213 215 215 213 211 209 208 208 209 208 208 208 207 207 206 205 204 203 201 199 200 200 200 199 198 196 193 192 192 193 195 196 197 198 198 200 201 201 205 208 211 217 221 226 234 239 245 250 253 257 260 264 270 274 276 277 277 278 279 279 279 278 276 275 274 272 267 260 257
257 245 240 239 235 232 227 222 219 217 216 214 212 212 211 211 213 213 212 211 209 206 205 206 206 206 208 208 208 206 205 203 202 200 198 197 197 197 198 198 197 196 194 193 193 193 194 195 196 197 197 198 199 199 203 207 210 216 220 225 232 235 240 245 248 255 261 265 271 272 271 275 277 278 277 275 275 275 274 272 270 267 262 255 252
264 243 237 231 230 236 233 225 220 216 216 215 215 216 215 214 216 214 210 210 207 203 203 203 203 206 208 208 206 204 202 200 198 197 197 196 195 195 195 195 195 195 194 194 194 194 193 192 192 194 194 195 198 200 203 206 209 213 218 222 227 229 232 239 244 253 260 262 266 268 270 275 275 273 273 272 272 273 271 269 268 266 262 256 253
263 236 230 228 227 232 231 225 220 215 214 214 215 215 214 214 215 212 210 209 204 201 201 201 202 206 206 204 202 201 199 197 195 195 195 193 192 192 192 192 192 193 193 193 193 192 192 191 190 191 193 195 197 200 201 204 207 210 214 217 220 224 226 234 243 248 254 260 266 272 277 277 272 270 272 272 273 274 273 273 274 274 272 267 262
253 232 229 233 230 230 231 225 219 218 214 213 215 215 215 216 214 212 210 207 201 199 199 200 202 204 201 199 198 197 195 194 194 193 192 190 189 189 189 190 191 192 193 192 191 190 190 192 191 191 193 195 196 197 196 201 204 207 213 213 213 221 227 232 243 249 254 262 267 271 274 272 269 271 275 275 275 276 276 275 277 277 277 276 274
245 234 230 234 231 228 230 224 221 221 215 215 217 216 214 216 215 213 210 203 198 198 199 200 201 199 196 196 195 193 192 192 192 191 190 188 187 187 187 188 189 191 191 190 190 190 189 190 191 191 193 195 194 192 193 197 200 201 209 217 219 224 230 235 241 246 253 258 262 267 268 267 268 271 275 277 277 277 279 278 278 279 278 277 277
241 234 234 236 233 228 226 224 223 220 218 221 219 212 213 217 215 211 204 196 196 198 198 198 196 194 194 194 192 191 190 191 190 189 188 186 186 186 187 188 189 189 190 189 188 189 187 188 190 190 192 193 190 189 192 194 194 194 201 213 222 224 228 237 244 247 251 255 260 267 268 266 270 274 279 282 280 278 279 279 277 275 275 275 275
238 233 238 236 229 225 225 227 230 229 228 227 221 216 218 219 212 204 197 194 194 195 195 195 193 192 193 191 190 190 189 189 188 187 186 185 185 186 187 187 187 186 186 186 186 187 188 188 190 191 191 192 189 189 190 190 189 193 198 205 216 226 233 240 242 242 248 255 260 265 267 268 274 280 284 286 284 280 279 280 277 274 275 276 273
243 238 241 233 223 227 230 230 234 234 232 228 222 218 218 212 202 196 193 191 192 192 192 192 191 191 191 189 189 188 187 187 186 184 184 184 185 186 186 186 186 185 186 186 186 187 188 188 190 190 190 191 190 187 187 188 189 194 199 204 215 226 230 232 234 240 251 258 260 262 267 273 280 283 283 284 286 286 284 285 286 284 283 284 280
253 243 240 228 217 216 221 226 232 233 227 222 220 215 207 200 195 191 188 187 188 188 188 189 190 191 191 189 187 186 185 184 183 182 183 184 184 185 186 185 184 184 185 186 185 186 187 187 188 189 190 190 187 186 187 188 189 193 198 205 214 221 225 230 239 250 253 255 261 270 276 278 280 282 284 286 289 292 293 293 292 288 285 284 282
290 277 265 255 240 229 228 229 229 227 222 218 215 204 192 188 186 183 182 182 183 186 188 189 191 191 190 189 187 186 184 183 182 182 183 184 184 185 185 184 183 183 184 184 185 185 187 187 188 189 190 188 184 186 188 186 188 194 199 206 215 221 228 236 244 249 250 259 273 279 280 279 280 282 286 291 294 295 295 293 289 288 288 288 289
326 317 307 299 289 274 258 242 228 224 221 212 199 188 180 177 177 177 178 179 183 188 190 190 193 192 189 189 188 187 185 184 184 184 184 184 184 184 185 186 185 184 184 184 184 183 185 188 189 188 187 186 184 185 187 186 186 192 198 206 215 219 227 237 244 249 259 273 281 279 276 279 283 287 291 294 297 296 295 294 294 295 296 295 296
340 338 335 328 326 325 307 275 248 234 217 190 181 177 172 172 176 176 175 179 189 194 194 194 194 191 189 189 189 188 187 186 186 186 185 184 184 184 185 186 187 186 184 182 181 180 181 185 187 186 186 187 185 184 186 185 183 188 197 204 212 218 227 238 248 259 269 277 278 276 280 285 286 290 293 295 298 300 300 301 303 302 300 298 299
340 344 348 349 352 359 3 355 353 19 166 172 175 173 172 177 177 174 180 193 199 199 197 195 192 189 189 190 189 189 189 188 187 186 185 185 184 183 183 184 184 184 181 179 178 177 176 180 184 185 186 188 187 184 183 181 179 185 194 200 209 218 227 239 255 267 271 274 278 282 287 288 288 290 294 298 303 305 305 305 304 302 299 298 300
329 339 346 352 354 355 357 351 338 201 171 173 172 172 180 183 174 181 199 205 203 198 193 190 188 188 189 189 189 190 190 189 188 185 184 185 185 183 182 180 180 179 176 173 172 170 170 175 182 185 187 190 187 182 178 176 177 184 191 197 207 215 226 246 259 264 267 274 285 288 287 287 288 292 299 305 307 307 306 305 303 300 298 299 303
327 337 344 347 344 343 346 344 329 229 185 181 177 179 185 180 183 204 213 208 200 193 189 188 187 187 187 188 188 189 188 187 187 184 182 183 184 183 181 178 175 174 170 166 166 166 167 171 178 185 188 188 182 175 173 174 177 185 190 196 207 216 228 247 256 262 272 279 284 286 285 286 290 298 305 308 308 308 307 305 301 299 301 305 309
313 322 326 327 323 318 316 313 298 236 207 194 186 185 184 186 203 216 211 200 196 192 188 186 185 185 186 186 186 186 186 185 185 184 181 181 181 180 178 175 173 169 165 163 165 165 166 168 175 181 184 181 175 172 174 176 178 184 191 197 206 217 228 242 257 270 276 278 281 282 282 285 294 304 308 307 307 309 307 303 302 305 308 311 313
300 301 305 306 295 283 287 285 266 236 218 205 199 194 188 200 217 216 203 194 194 190 185 184 184 183 184 184 183 184 185 184 184 183 180 179 179 177 175 174 173 169 164 163 164 166 167 167 170 175 177 176 173 173 176 178 178 183 192 199 207 216 227 240 257 268 271 275 280 279 283 292 301 306 307 306 308 309 307 306 308 312 315 316 315
308 304 304 302 290 281 282 277 262 245 228 219 215 203 196 215 223 212 199 195 191 185 182 182 181 181 181 180 180 181 183 184 183 182 181 179 177 175 173 174 175 172 167 163 164 168 169 167 167 170 171 172 173 174 176 178 181 187 193 198 205 212 227 244 255 264 273 279 281 282 291 302 306 306 308 309 310 310 309 310 313 316 319 319 316
309 309 310 306 298 289 283 278 273 262 245 235 230 218 216 230 226 209 201 197 189 183 181 179 178 180 179 177 176 177 180 183 183 183 184 183 179 176 174 174 175 173 169 166 166 168 169 168 168 166 166 168 173 176 175 173 176 184 189 192 198 208 230 247 252 262 273 275 275 282 292 301 305 308 309 309 309 310 312 314 316 319 319 318 316
308 309 309 307 302 290 278 274 276 270 259 250 242 235 234 238 229 211 203 197 188 183 180 178 177 177 176 176 175 175 177 179 182 184 185 185 183 180 176 174 175 174 171 168 167 168 169 169 166 163 164 167 172 174 171 167 168 171 173 182 195 210 225 233 244 259 265 266 271 281 293 305 316 319 317 316 316 317 320 321 321 321 319 317 316
306 307 306 304 297 285 275 267 267 269 264 254 247 245 243 239 229 215 203 194 189 186 182 179 178 175 174 176 177 176 176 178 181 184 185 186 186 184 181 179 178 175 173 171 170 170 171 170 164 160 160 163 173 181 176 169 168 167 167 180 196 206 215 225 242 254 255 262 275 290 311 331 336 335 332 331 330 327 326 324 321 320 319 317 316
305 305 303 298 290 282 276 270 268 270 266 255 250 250 246 237 228 216 203 194 192 189 185 181 178 175 175 177 177 178 179 179 180 184 187 189 190 188 184 181 181 180 178 177 175 175 176 171 164 162 162 165 175 182 176 167 165 166 167 177 187 196 209 219 232 245 250 263 284 315 341 344 341 338 334 332 331 328 324 322 321 321 320 319 318
309 310 307 300 293 287 280 275 274 273 268 259 255 253 246 237 227 215 205 198 192 189 187 184 181 179 178 177 178 180 181 181 181 181 183 186 191 191 187 182 182 184 185 183 181 180 177 171 165 164 169 171 170 167 167 168 168 168 169 170 172 181 192 191 194 228 249 271 317 350 351 344 338 335 332 328 326 323 320 318 320 321 321 320 318
309 310 307 302 300 294 284 275 274 272 266 260 257 253 246 238 227 216 209 203 194 189 190 190 189 188 185 182 181 181 181 182 181 179 178 176 178 184 188 187 184 184 184 184 183 178 173 169 165 162 164 164 158 155 163 171 169 164 164 162 162 167 168 162 177 222 239 329 14 360 344 341 340 336 330 323 319 318 316 317 319 319 319 319 318